View from above orbital plane
|
View from above satellite
|
Ground track
|
The orbit data is extracted from the following two-line orbital elements,
1 38758U 12048A 21064.97693854 0.00000000 00000-0 00000-0 0 03
2 38758 63.4438 85.6226 0146870 359.4450 0.5550 13.40819748 06
Epoch (UTC): | 05 March 2021 23:26:47 |
Eccentricity: | 0.0146870 |
inclination: | 63.4438° |
perigee height: | 996 km |
apogee height: | 1216 km |
right ascension of ascending node: | 85.6226° |
argument of perigee: | 359.4450° |
revolutions per day: | 13.40819748 |
mean anomaly at epoch: | 0.5550° |
orbit number at epoch: | 0 |
The dashed part of the orbit path shows where the satellite is in the earth's shadow,
|
|